Find Starlink 3396

NORAD ID: 51129 Int'l Des: 2022-005 Owner: SPXS Country: US Constellation: starlink operational
LEOCIRCULAR

現在のビュー

3D地球を読み込み中...

About Starlink 3396

Starlink 3396 (NORAD 51129) is a starlink constellation satellite (v1.5) launched Jan 19, 2022 by SPXS of US. It operates in LEO, CIRCULAR orbit with a mass of 297.00 kg.

Starlink 3396について

説明を読み込み中...

次回通過

Passes for default location (London). Set your location on the main map for personalized predictions.

高度履歴

Loading altitude history...

軌道要素

1 51129U 22005AB 26173.42095887 .00000020 00000-0 19354-4 0 9997
2 51129 53.1586 188.8353 0001111 72.0937 288.0175 15.08831505244542
Epoch: Jun 22, 2026 • Age: 19 hours

現在のステータス

高度 545.5 km
速度 7.60 km/s
衛星直下点 53.01°N, 88°W
打ち上げ日 Jan 19, 2022
運用期間 4.4 years
タイプ internet

技術仕様

分類 Payload
質量 297.00 kg
乾燥質量 275.00 kg
総質量 297.00 kg
長さ 0.20 m
直径 2.80 m
スパン 9.00 m
形状 Box + pan
製造者 SPXS
バスタイプ Starlink
フェーズステータス In Orbit
所有者/国 SPXS/US

Most Searched